[[{"header":{"parameterUnit":"m.s-1","parameterCategory":1,"la1":30.2991,"la2":30.254,"lo1":-89.0895,"lo2":-89.0444,"dy":0.0017,"dx":0.0017,"nx":28,"ny":28,"refTime":"2025-09-05T03:00:00:Z","depth":0,"parameterNumber":2,"parameterNumberName":"U-component_of_WINDS"},"data":[0,0,0,0,0,0,0,0,0,0,0,0,0,0,0,0,0,0,0,0,0,0,0,0,0,0,0,0,0,0,0,0,0,0,0,0,0,0,0,0,0,0,0,0,0,0,0,0,0,0,0,0,0,0,0,0,0,0,-1.5631,-1.5631,0,-1.5556,-1.5555,-1.5555,-1.55,-1.55,-1.5499,-1.5499,-1.542,-1.5419,-1.5417,0,0,0,0,0,0,0,0,0,0,0,0,0,-1.5729,-1.5727,-1.5632,-1.5631,-1.563,-1.5556,-1.5555,-1.5554,-1.55,-1.5499,-1.5499,-1.5498,-1.5421,-1.5419,-1.5417,0,0,0,0,0,0,0,0,0,0,0,0,0,-1.5673,-1.5727,-1.5632,-1.5594,-1.559,-1.5557,-1.5555,-1.5554,-1.55,-1.5499,-1.5499,-1.5498,-1.5421,-1.5419,-1.5416,-1.5415,0,0,-1.5409,-1.5408,0,0,0,0,0,0,0,0,-1.5676,-1.567,-1.56,-1.5596,-1.5592,-1.5537,-1.5561,-1.5507,-1.55,-1.5534,-1.5499,-1.5498,-1.5459,-1.5454,-1.5441,-1.5411,-1.5408,-1.5409,-1.5407,-1.5406,-1.5405,0,0,0,0,0,0,0,-1.568,-1.5673,-1.5602,-1.5599,-1.5594,-1.5581,-1.5572,-1.555,-1.5501,-1.5531,-1.5527,-1.5519,-1.5457,-1.5444,-1.5439,-1.5406,-1.5409,-1.5406,-1.5405,-1.5404,-1.5373,-1.5373,0,0,0,0,0,0,-1.569,-1.5676,-1.5604,-1.5599,-1.5633,-1.558,-1.557,-1.5555,-1.5502,-1.5493,-1.552,-1.5517,-1.5448,-1.5442,-1.5436,-1.5431,-1.5406,-1.5404,-1.5402,-1.5372,-1.5373,-1.5373,0,0,0,0,0,0,-1.5692,-1.5684,-1.5607,-1.5637,-1.5626,-1.5579,-1.5562,-1.5554,-1.5541,-1.5493,-1.5484,-1.5515,-1.5447,-1.5439,-1.5421,-1.5427,-1.5403,-1.54,-1.5371,-1.5372,-1.5373,-1.542,0,0,0,0,0,0,-1.5696,-1.5685,-1.5684,-1.5637,-1.5625,-1.5593,-1.5563,-1.5553,-1.5537,-1.5532,-1.5486,-1.5478,-1.5446,-1.5425,-1.5418,-1.5423,-1.5398,-1.537,-1.5372,-1.5373,-1.5418,-1.5423,-1.5427,0,0,0,0,0,-1.5699,-1.57,-1.5684,-1.5676,-1.5622,-1.5594,-1.5586,-1.5551,-1.5537,-1.5536,-1.5505,-1.5479,-1.5428,-1.5423,-1.5415,-1.542,-1.537,-1.5371,-1.5373,-1.5416,-1.5422,-1.5427,0,0,0,0,0,0,-1.5747,-1.5693,-1.5675,-1.566,-1.5632,-1.5585,-1.5581,-1.5558,-1.5532,-1.5529,-1.5486,-1.5476,-1.5462,-1.5439,-1.5435,-1.5416,-1.5396,-1.5396,-1.5431,-1.5436,-1.5441,-1.5446,-1.5396,0,0,0,0,0,-1.5757,-1.5739,-1.5692,-1.5683,-1.567,-1.5629,-1.5615,-1.559,-1.5559,-1.5546,-1.5515,-1.5485,-1.5463,-1.5448,-1.5425,-1.5415,-1.5404,-1.5414,-1.5419,-1.5423,-1.5423,-1.5417,-1.5421,-1.5378,-1.5378,-1.5378,0,0,-1.5775,-1.5743,-1.5734,-1.5692,-1.5667,-1.565,-1.5619,-1.5601,-1.5587,-1.5543,-1.5524,-1.55,-1.5465,-1.5451,-1.5443,-1.5431,-1.5433,-1.5425,-1.5428,-1.5426,-1.5419,-1.5423,-1.5427,-1.5379,-1.5379,-1.5379,0,0,-1.5799,-1.5773,-1.5763,-1.574,-1.5703,-1.5676,-1.5674,-1.563,-1.5613,-1.5593,-1.556,-1.5544,-1.5505,-1.5482,-1.5465,-1.5483,-1.5458,-1.5477,-1.55,-1.5494,-1.5498,-1.55,-1.5507,-1.551,-1.5477,-1.5477,-1.5477,0,-1.5826,-1.5798,-1.5761,-1.5746,-1.5729,-1.569,-1.568,-1.5659,-1.5617,-1.5606,-1.5594,-1.5546,-1.552,-1.55,-1.5505,-1.5492,-1.5489,-1.5481,-1.55,-1.5503,-1.5505,-1.551,-1.5513,-1.548,-1.548,-1.5479,-1.5479,0,-1.5833,-1.5815,-1.5812,-1.5773,-1.5755,-1.5743,-1.5705,-1.5692,-1.567,-1.5644,-1.5625,-1.5592,-1.5561,-1.5555,-1.5532,-1.5533,-1.5527,-1.5509,-1.5487,-1.5512,-1.5516,-1.5518,-1.5483,-1.5482,-1.5482,-1.5481,0,0,-1.5884,-1.5826,-1.5826,-1.5808,-1.5766,-1.5751,-1.5738,-1.5709,-1.5699,-1.5671,-1.5659,-1.5629,-1.5612,-1.5593,-1.5568,-1.5563,-1.558,-1.5545,-1.5543,-1.5552,-1.5579,-1.5593,-1.5596,-1.5565,-1.5565,-1.5565,-1.5582,0,-1.5901,-1.5874,-1.5842,-1.5827,-1.581,-1.5774,-1.5762,-1.5735,-1.5711,-1.5694,-1.5667,-1.5646,-1.5626,-1.5614,-1.5608,-1.558,-1.5585,-1.5578,-1.5552,-1.5552,-1.5561,-1.5599,-1.5613,-1.563,-1.5584,-1.5584,-1.5584,0,-1.5917,-1.5892,-1.5876,-1.5837,-1.5828,-1.5818,-1.579,-1.5773,-1.5743,-1.5726,-1.5706,-1.5679,-1.5664,-1.5646,-1.5625,-1.5621,-1.5609,-1.5593,-1.5593,-1.5588,-1.5569,-1.5594,-1.5635,-1.5638,-1.5587,-1.5587,-1.5587,0,-1.5955,-1.5918,-1.5903,-1.589,-1.5844,-1.5838,-1.5818,-1.5787,-1.5773,-1.5748,-1.5738,-1.5712,-1.5698,-1.5679,-1.5646,-1.5636,-1.5629,-1.5608,-1.5614,-1.5615,-1.5613,-1.5613,-1.5651,-1.5607,-1.5607,-1.5607,-1.5607,0,-1.5977,-1.5968,-1.592,-1.5911,-1.5901,-1.5864,-1.5855,-1.5832,-1.5805,-1.5792,-1.5759,-1.5747,-1.5705,-1.5688,-1.5663,-1.5649,-1.5643,-1.5629,-1.5622,-1.5632,-1.5633,-1.5622,-1.562,-1.5607,-1.5607,-1.5607,-1.5607,0,-1.6017,-1.5985,-1.5966,-1.5925,-1.5915,-1.5909,-1.5873,-1.5864,-1.5839,-1.5822,-1.5816,-1.5777,-1.5756,-1.5722,-1.5691,-1.5674,-1.5665,-1.5653,-1.5675,-1.5671,-1.5679,-1.5678,-1.5711,-1.5713,-1.5668,-1.5668,-1.5669,0,-1.6033,-1.6025,-1.5984,-1.5973,-1.5955,-1.5937,-1.5922,-1.5887,-1.5873,-1.5839,-1.5833,-1.581,-1.5789,-1.5757,-1.5726,-1.5702,-1.569,-1.5703,-1.5686,-1.5696,-1.569,-1.569,-1.5689,-1.5706,-1.5707,-1.5707,-1.5708,0,-1.6064,-1.6049,-1.6029,-1.6004,-1.5988,-1.5966,-1.5943,-1.5936,-1.5895,-1.5882,-1.586,-1.5844,-1.5813,-1.579,-1.5762,-1.5742,-1.5719,-1.5714,-1.5714,-1.5723,-1.5735,-1.5729,-1.5685,-1.5713,-1.5712,-1.5712,-1.5712,-1.5712,-1.6092,-1.6084,-1.6054,-1.6034,-1.6013,-1.5992,-1.5982,-1.5956,-1.5938,-1.591,-1.589,-1.587,-1.5841,-1.5802,-1.5784,-1.5768,-1.5757,-1.5757,-1.5757,-1.5758,-1.5761,-1.5739,-1.5762,-1.5762,-1.5762,-1.5762,-1.5762,0,-1.6122,-1.6101,-1.6083,-1.6052,-1.6036,-1.6016,-1.599,-1.5978,-1.5961,-1.5936,-1.5917,-1.5893,-1.5871,-1.5839,-1.5815,-1.5809,-1.5797,-1.5804,-1.5803,-1.5799,-1.5772,-1.5774,-1.5813,-1.5813,-1.5813,-1.5813,-1.5813,-1.5813,-1.6135,-1.6121,-1.6103,-1.6079,-1.6058,-1.6038,-1.6025,-1.6006,-1.5987,-1.5961,-1.5943,-1.5923,-1.5896,-1.587,-1.585,-1.5841,-1.5833,-1.5843,-1.5831,-1.5806,-1.5801,-1.5796,-1.5798,-1.5842,-1.5842,-1.586,-1.586,-1.586]},{"header":{"parameterUnit":"m.s-1","parameterCategory":1,"la1":30.2991,"la2":30.254,"lo1":-89.0895,"lo2":-89.0444,"dy":0.0017,"dx":0.0017,"nx":28,"ny":28,"refTime":"2025-09-05T03:00:00:Z","depth":0,"parameterNumber":3,"parameterNumberName":"V-component_of_WINDS"},"data":[0,0,0,0,0,0,0,0,0,0,0,0,0,0,0,0,0,0,0,0,0,0,0,0,0,0,0,0,0,0,0,0,0,0,0,0,0,0,0,0,0,0,0,0,0,0,0,0,0,0,0,0,0,0,0,0,0,0,2.847,2.847,0,2.8437,2.8436,2.8436,2.847,2.8471,2.8472,2.8474,2.8434,2.8432,2.843,0,0,0,0,0,0,0,0,0,0,0,0,0,2.8558,2.8556,2.847,2.847,2.8469,2.8437,2.8436,2.8436,2.8469,2.8471,2.8473,2.8474,2.8435,2.8432,2.843,0,0,0,0,0,0,0,0,0,0,0,0,0,2.8522,2.8556,2.847,2.8482,2.8483,2.8437,2.8436,2.8436,2.8469,2.8471,2.8473,2.8475,2.8436,2.8433,2.8429,2.8368,0,0,2.8419,2.8417,0,0,0,0,0,0,0,0,2.8524,2.8518,2.8481,2.8481,2.8482,2.846,2.8453,2.8413,2.8469,2.8474,2.8474,2.8476,2.8441,2.8437,2.8426,2.8366,2.8365,2.8419,2.8416,2.8415,2.8414,0,0,0,0,0,0,0,2.8526,2.852,2.8457,2.848,2.8481,2.8488,2.8485,2.8446,2.8446,2.8474,2.8476,2.8472,2.8441,2.843,2.8426,2.8364,2.8419,2.8416,2.8413,2.8412,2.8253,2.8251,0,0,0,0,0,0,2.8528,2.8522,2.8458,2.8456,2.8508,2.8485,2.8481,2.8465,2.8447,2.8446,2.847,2.8474,2.8434,2.843,2.8424,2.8352,2.8415,2.8412,2.841,2.8255,2.8252,2.825,0,0,0,0,0,0,2.853,2.8522,2.8459,2.8489,2.8482,2.8481,2.8462,2.8463,2.8451,2.8445,2.8444,2.8458,2.8436,2.8429,2.8382,2.8351,2.841,2.8407,2.8258,2.8254,2.8251,2.8207,0,0,0,0,0,0,2.8532,2.8522,2.85,2.8489,2.848,2.8419,2.846,2.8461,2.8446,2.845,2.8433,2.8432,2.8437,2.8387,2.8379,2.8347,2.8404,2.826,2.8256,2.8252,2.8211,2.8202,2.8195,0,0,0,0,0,2.8535,2.8488,2.8499,2.8491,2.8453,2.8417,2.8412,2.842,2.8443,2.842,2.8416,2.8433,2.8356,2.8382,2.8373,2.834,2.8262,2.8257,2.8253,2.8214,2.8204,2.8195,0,0,0,0,0,0,2.8493,2.8486,2.8499,2.8446,2.8432,2.8423,2.8394,2.8408,2.8386,2.839,2.8399,2.8395,2.8346,2.8338,2.8368,2.828,2.8313,2.8306,2.8287,2.8277,2.8269,2.8271,2.8402,0,0,0,0,0,2.8478,2.8451,2.8446,2.84,2.8393,2.8395,2.8379,2.8387,2.8372,2.8365,2.8358,2.8341,2.8314,2.8295,2.8269,2.821,2.8207,2.8183,2.8175,2.8169,2.8162,2.8131,2.812,2.8234,2.8234,2.8234,0,0,2.8446,2.8439,2.8421,2.8392,2.8382,2.8353,2.8389,2.8357,2.8335,2.836,2.8316,2.831,2.8292,2.8239,2.8215,2.8231,2.813,2.8162,2.8157,2.8154,2.8124,2.8114,2.8104,2.8231,2.8231,2.8232,0,0,2.8373,2.8365,2.8327,2.8317,2.8302,2.8303,2.8294,2.8283,2.828,2.8237,2.8255,2.8228,2.818,2.8167,2.8154,2.8077,2.8091,2.8068,2.8026,2.7995,2.7986,2.7978,2.795,2.794,2.8062,2.8062,2.8062,0,2.8335,2.8293,2.8305,2.8271,2.8257,2.8281,2.8241,2.823,2.8207,2.8196,2.8215,2.8156,2.8145,2.809,2.8071,2.806,2.8049,2.807,2.7987,2.7979,2.7972,2.7945,2.7935,2.8059,2.8059,2.806,2.806,0,2.8247,2.8217,2.8188,2.8167,2.815,2.8113,2.8118,2.8099,2.8108,2.8107,2.8062,2.8051,2.8023,2.8011,2.8018,2.7956,2.7967,2.7986,2.8018,2.7958,2.7933,2.7923,2.8055,2.8056,2.8057,2.8058,0,0,2.8145,2.8132,2.8121,2.8112,2.8098,2.8075,2.8039,2.8014,2.7997,2.798,2.795,2.791,2.7928,2.7913,2.7919,2.7892,2.7832,2.7915,2.7915,2.7899,2.7762,2.7748,2.7736,2.7842,2.784,2.7839,2.7764,0,2.8071,2.8012,2.8021,2.7962,2.7935,2.7958,2.7927,2.7914,2.7912,2.7888,2.7886,2.7857,2.7883,2.7874,2.7849,2.7845,2.7804,2.785,2.7812,2.7811,2.7816,2.7723,2.7707,2.7637,2.7754,2.7753,2.7751,0,2.7978,2.796,2.7899,2.789,2.7878,2.785,2.7828,2.7805,2.7791,2.7792,2.7776,2.7787,2.775,2.7785,2.7734,2.7765,2.775,2.7745,2.7743,2.7739,2.7777,2.7716,2.7615,2.7604,2.7736,2.7738,2.7739,0,2.7909,2.787,2.7828,2.782,2.7808,2.7788,2.7782,2.777,2.7754,2.7734,2.7724,2.77,2.7686,2.7667,2.7671,2.7695,2.7618,2.7653,2.7617,2.7617,2.7599,2.76,2.7493,2.759,2.759,2.7591,2.7591,0,2.7826,2.7788,2.7798,2.7772,2.773,2.7741,2.7698,2.7694,2.7684,2.7657,2.7674,2.7648,2.7656,2.763,2.7633,2.759,2.7584,2.7583,2.7584,2.7581,2.7581,2.757,2.7575,2.7588,2.7588,2.7589,2.7589,0,2.7742,2.7748,2.7704,2.7697,2.7695,2.7663,2.7657,2.7632,2.7633,2.7599,2.7591,2.7591,2.7562,2.7565,2.7531,2.7533,2.748,2.7487,2.7485,2.7486,2.745,2.7454,2.7333,2.7318,2.7425,2.7424,2.7423,0,2.7688,2.766,2.7651,2.7635,2.7628,2.7602,2.7587,2.7597,2.758,2.7562,2.7539,2.7512,2.7491,2.7442,2.7439,2.7413,2.7419,2.7379,2.7415,2.7413,2.7418,2.742,2.7417,2.7371,2.737,2.7369,2.7368,0,2.7592,2.7597,2.7575,2.7555,2.7537,2.752,2.7506,2.7491,2.75,2.748,2.7451,2.7435,2.7401,2.7373,2.735,2.7342,2.7356,2.7357,2.7347,2.7344,2.7344,2.7343,2.7465,2.7359,2.736,2.7361,2.7361,2.7362,2.7522,2.7498,2.7488,2.7463,2.7454,2.744,2.7417,2.7415,2.7392,2.7367,2.7374,2.7341,2.7327,2.7297,2.7287,2.7261,2.7275,2.7261,2.7257,2.7253,2.7249,2.7349,2.7256,2.7256,2.7257,2.7257,2.7257,0,2.7426,2.7422,2.7399,2.7379,2.736,2.7377,2.7362,2.7344,2.7315,2.7303,2.7282,2.7248,2.7222,2.7217,2.7191,2.7171,2.7177,2.7164,2.7165,2.7163,2.7238,2.7249,2.716,2.716,2.716,2.716,2.716,2.716,2.7375,2.7335,2.7338,2.7293,2.7288,2.7258,2.7248,2.7235,2.7225,2.7188,2.7166,2.7164,2.7154,2.7128,2.7104,2.7103,2.7092,2.7077,2.7078,2.7148,2.7158,2.7167,2.7177,2.7074,2.7074,2.7005,2.7005,2.7004]}]]